Location: Champignolles
(47.0543°N, 4.5663°E)
Time: 20:03:20
(UTC+00:00)

Envisat - Pass Details

Date: 12 March 2021
Orbit: 764 x 766 km, 98.1° (Epoch: 16 April)

Event Time Altitude Azimuth Distance (km) Brightness Sun altitude
Rises 04:23:49 0° 24° (NNE) 3,243 6.8 -17.2°
Reaches altitude 10° 04:26:34 10° 39° (NE) 2,311 6.2 -16.7°
Maximum altitude 04:30:40 24° 92° (E) 1,544 5.4 -16.0°
Drops below altitude 10° 04:34:44 10° 146° (SE) 2,296 5.7 -15.4°
Sets 04:37:26 0° 160° (SSE) 3,217 6.3 -14.9°
